Change the Weather History Date:

Wednesday, September 4, 2013

  Actual Average Record
Temperature  
Mean Temperature 82 °F 81 °F  
Max Temperature 89 °F 89 °F 96 °F (1999)
Min Temperature 74 °F 73 °F 62 °F (1977)
Degree Days  
Heating Degree Days 0 0  
Month to date heating degree days 0 0  
Since 1 July heating degree days 0 0  
Cooling Degree Days 17 16  
Month to date cooling degree days 67 64  
Year to date cooling degree days 2516 2290  
Growing Degree Days 32 (Base 50)    
Moisture  
Dew Point 74 °F    
Average Humidity 75    
Maximum Humidity 94    
Minimum Humidity 55    
Precipitation  
Precipitation T in 0.25 in 3.32 in (2004)
Month to date precipitation 0.77 1.04  
Year to date precipitation 31.96 34.89  
Sea Level Pressure  
Sea Level Pressure 30.04 in    
Wind  
Wind Speed 4 mph (East)    
Max Wind Speed 12 mph    
Max Gust Speed 15 mph    
Visibility 10 miles    
Events Rain    
T = Trace of Precipitation, MM = Missing Value Source: NWS Daily Summary

Daily Weather History Graph

Daily Weather History Graph

Search for Another Location

Airport or City:

Trip Planner

Search our weather history database for the weather conditions in past years. The results will help you decide how hot, cold, wet, or windy it might be!

Date:

Astronomy

Sep. 04, 2013 Rise Set
Actual Time 7:02 AM EDT 7:39 PM EDT
Civil Twilight 6:38 AM EDT 8:03 PM EDT
Nautical Twilight 6:10 AM EDT 8:31 PM EDT
Astronomical Twilight 5:42 AM EDT 8:59 PM EDT
Moon 6:13 AM EDT (9/4) 7:01 PM EDT (9/4)
Length of Visible Light 13h 24m
Length of Day
12h 37m
Waning Crescent, 1% of the Moon is Illuminated
Sep 4
Waning Crescent
Sep 5
New
Sep 12
First Quarter
Sep 19
Full
Sep 26
Last Quarter

Hourly Weather History & Observations

Time (EDT) Temp. Heat Index Dew Point Humidity Pressure Visibility Wind Dir Wind Speed Gust Speed Precip Events Conditions
12:53 AM 78.1 °F - 73.9 °F 87% 30.03 in 10.0 mi SSW 3.5 mph - N/A   Unknown
1:53 AM 78.1 °F - 73.9 °F 87% 30.00 in 10.0 mi South 4.6 mph - N/A   Unknown
2:53 AM 75.9 °F - 73.9 °F 94% 29.99 in 10.0 mi Calm Calm - N/A   Unknown
3:53 AM 75.9 °F - 73.9 °F 94% 29.99 in 10.0 mi Calm Calm - N/A   Unknown
4:53 AM 75.0 °F - 73.0 °F 94% 29.99 in 10.0 mi NW 3.5 mph - N/A   Unknown
5:53 AM 75.0 °F - 73.9 °F 96% 30.00 in 8.0 mi Calm Calm - N/A   Clear
6:53 AM 75.0 °F - 73.0 °F 94% 30.02 in 10.0 mi Calm Calm - N/A   Clear
7:53 AM 77.0 °F - 75.0 °F 94% 30.04 in 10.0 mi Calm Calm - N/A   Clear
8:53 AM 81.0 °F 87.3 °F 75.9 °F 85% 30.05 in 10.0 mi Calm Calm - N/A   Unknown
9:53 AM 82.9 °F 90.8 °F 75.9 °F 79% 30.07 in 10.0 mi Calm Calm - N/A   Clear
10:53 AM 84.0 °F 91.9 °F 75.0 °F 74% 30.08 in 10.0 mi Calm Calm - N/A   Partly Cloudy
11:53 AM 87.1 °F 93.6 °F 72.0 °F 61% 30.08 in 10.0 mi ESE 5.8 mph - N/A   Scattered Clouds
12:53 PM 88.0 °F 92.1 °F 69.1 °F 53% 30.07 in 10.0 mi East 5.8 mph - N/A   Clear
1:53 PM 87.1 °F 93.6 °F 72.0 °F 61% 30.06 in 10.0 mi East 6.9 mph - N/A   Clear
2:53 PM 88.0 °F 95.6 °F 73.0 °F 61% 30.04 in 10.0 mi ENE 9.2 mph - N/A   Partly Cloudy
3:53 PM 87.1 °F 94.5 °F 73.0 °F 63% 30.04 in 10.0 mi East 9.2 mph - N/A   Clear
4:53 PM 84.9 °F 93.3 °F 75.0 °F 72% 30.04 in 10.0 mi East 8.1 mph - N/A   Clear
5:53 PM 84.0 °F 91.9 °F 75.0 °F 74% 30.03 in 10.0 mi East 8.1 mph - N/A   Clear
6:53 PM 82.9 °F 90.8 °F 75.9 °F 79% 30.04 in 10.0 mi East 5.8 mph - 0.00 in Rain Light Rain
7:53 PM 82.9 °F 90.8 °F 75.9 °F 79% 30.05 in 10.0 mi ESE 4.6 mph - 0.00 in   Clear
8:53 PM 82.9 °F 90.8 °F 75.9 °F 79% 30.07 in 10.0 mi East 5.8 mph - N/A   Clear
9:53 PM 80.1 °F 85.8 °F 77.0 °F 90% 30.09 in 10.0 mi NW 3.5 mph - N/A   Clear
10:53 PM 78.1 °F - 75.0 °F 90% 30.09 in 10.0 mi West 4.6 mph - N/A   Clear
11:53 PM 78.1 °F - 73.9 °F 87% 30.08 in 10.0 mi NNW 3.5 mph - N/A   Clear